DW0980 Weather Reports


time (UTC)temp
C
wind
direction
speed
KPH
gust
KPH
rain 1hr
cm
rain 24hr
cm
rain mn
cm
humidity
%
barometer
mb
20260504193058 20 270 11.3 29.0 0.00 0.00 0.00 38 1004.8
20260504191609 20 311 12.9 32.2 0.00 0.00 0.00 38 1004.9
20260504190056 20 277 11.3 24.1 0.00 0.00 0.00 40 1004.9
20260504184555 20 244 16.1 33.8 0.00 0.00 0.00 37 1004.9
20260504183053 20 294 11.3 27.4 0.00 0.00 0.00 41 1004.9
20260504181552 20 261 11.3 33.8 0.00 0.00 0.00 38 1005.2
20260504180049 19 265 17.7 32.2 0.00 0.00 0.00 39 1005.4
20260504174554 20 248 20.9 32.2 0.00 0.00 0.00 38 1005.4
20260504173047 20 259 6.4 32.2 0.00 0.00 0.00 39 1005.5
20260504171546 20 242 19.3 32.2 0.00 0.00 0.00 38 1005.5
20260504081554 3 250 0.0 11.3 0.00 0.00 0.00 85 1008.8
20260504044525 -1 290 0.0 0.0 0.00 0.03 0.00 89 1008.7
20260504043024 -1 290 0.0 0.0 0.00 0.03 0.00 89 1008.7
20260504041521 -1 290 0.0 0.0 0.00 0.03 0.00 88 1008.7
20260504040018 0 290 0.0 0.0 0.00 0.03 0.03 88 1008.6
20260504034516 0 290 0.0 0.0 0.00 0.03 0.03 88 1008.6
20260504033015 0 290 0.0 0.0 0.00 0.03 0.03 87 1008.6
20260504031514 0 290 0.0 0.0 0.00 0.03 0.03 86 1008.6
20260504030014 0 290 0.0 0.0 0.00 0.08 0.03 86 1008.6
20260504024510 0 290 0.0 0.0 0.00 0.08 0.03 85 1008.5
20260504023010 1 290 0.0 0.0 0.00 0.08 0.03 82 1008.5
20260504021509 1 290 0.0 0.0 0.00 0.08 0.03 82 1008.6
20260504020002 1 290 0.0 0.0 0.00 0.08 0.03 80 1008.5
20260504014607 2 290 0.0 0.0 0.00 0.08 0.03 78 1008.4
20260504013057 2 290 0.0 0.0 0.00 0.08 0.03 77 1008.3
20260504011553 3 290 0.0 0.0 0.00 0.08 0.03 77 1008.2
20260504010059 3 290 0.0 0.0 0.00 0.08 0.03 71 1008.0
20260504004553 5 290 0.0 0.0 0.00 0.08 0.03 68 1007.9
20260504003053 5 290 0.0 0.0 0.00 0.08 0.03 65 1007.6
20260504001558 6 290 0.0 0.0 0.00 0.08 0.03 63 1007.6
20260504000058 7 290 0.0 0.0 0.00 0.10 0.03 60 1007.4
20260503234551 7 290 0.0 6.4 0.00 0.10 0.03 56 1007.2
20260503233052 8 290 0.0 0.0 0.00 0.10 0.03 54 1007.2
20260503231550 8 310 1.6 19.3 0.00 0.10 0.03 51 1007.0
20260503230109 8 248 0.0 17.7 0.00 0.13 0.03 52 1006.9
20260503224548 9 252 0.0 14.5 0.00 0.13 0.03 51 1006.8
20260503223106 9 313 0.0 8.0 0.00 0.13 0.03 52 1006.8
20260503221552 9 294 1.6 14.5 0.00 0.13 0.03 50 1006.6
20260503220050 9 294 0.0 24.1 0.00 0.25 0.03 51 1006.5
20260503214554 10 296 3.2 20.9 0.00 0.25 0.03 49 1006.3
20260503213049 10 265 0.0 24.1 0.00 0.25 0.03 50 1006.2
20260503211544 10 281 3.2 27.4 0.00 0.25 0.03 48 1006.1
20260503210043 10 322 0.0 22.5 0.00 0.28 0.03 51 1006.0
20260503210014 10 329 0.0 14.5 0.00 0.28 0.03 50 1006.0
20260503204545 10 336 0.0 14.5 0.00 0.28 0.03 48 1005.8
20260503203046 10 350 0.0 14.5 0.00 0.28 0.03 49 1005.8
20260503201547 10 360 4.8 16.1 0.00 0.28 0.03 46 1005.5
20260503200043 10 27 1.6 19.3 0.00 0.38 0.03 47 1005.6
20260503194641 10 348 1.6 19.3 0.00 0.38 0.03 48 1005.7